Regional Weather Roundup
Issued by NWS

Home | Current Version | Previous Version | Text Only | Print | Product List | Glossary On
Versions: 1 2 3 4 5 6 7 8 9 10 11 12 13 14 15 16 17 18 19 20 21 22 23 24 25 26 27 28 29 30 31 32 33 34 35 36 37 38 39 40 41 42 43 44 45 46 47 48 49 50
000
ASUS43 KOAX 141510
RWRNE

WEATHER ROUNDUP FOR NEBRASKA
NATIONAL WEATHER SERVICE OMAHA NE
900 AM CST THU NOV 14 2019

NOTES: SATELLITE DATA IS BEING USED TO AUGMENT CLOUD COVER ABOVE
       12000 FEET.
       "FAIR" INDICATES FEW OR NO CLOUDS BELOW 12,000 FEET WITH NO
       SIGNIFICANT WEATHER AND/OR OBSTRUCTIONS TO VISIBILITY.


NEZ001>004-019>022-054>056-141600-
NEBRASKA PANHANDLE

CITY           SKY/WX    TMP DP  RH WIND       PRES   REMARKS
SCOTTSBLUFF    FAIR      32  30  92 W5        30.31R WCI  27
ALLIANCE       FAIR      28  25  88 W5        30.28R WCI  23
CHADRON        FAIR      29  26  89 SW5       30.28R WCI  24
GORDON         FAIR      31  29  93 SW3       30.25R
KIMBALL        FAIR      33  32  96 W13       30.31R WCI  24
SIDNEY         FAIR      33  29  85 W6        30.30R WCI  28
$$

NEZ057>060-069>072-079>082-141600-
SOUTHWEST NEBRASKA

CITY           SKY/WX    TMP DP  RH WIND       PRES   REMARKS
NORTH PLATTE   FAIR      28  26  92 NW5       30.33R WCI  23
IMPERIAL       FAIR      33  28  81 W8        30.34R WCI  26
LEXINGTON      FAIR      31  29  92 NW8       30.34R WCI  23
MCCOOK         FAIR      32  28  85 W7        30.36R WCI  26
OGALLALA       FAIR      29  28  96 CALM      30.33R
$$

NEZ005>010-023>029-035>040-094-141600-
NORTH CENTRAL NEBRASKA

CITY           SKY/WX    TMP DP  RH WIND       PRES   REMARKS
VALENTINE      FAIR      32  28  85 SW5       30.28R WCI  27
AINSWORTH      FAIR      32  32 100 W8        30.28R WCI  25
BROKEN BOW     FAIR      32  28  85 CALM      30.31R
O`NEILL        FAIR      30  28  94 W6        30.30R WCI  24
ORD            FAIR      29  26  89 NW5       30.31R WCI  24
THEDFORD       FAIR      31  30  96 W5        30.30R WCI  27
$$

NEZ041-046>049-061>064-073>077-083>087-141600-
SOUTH CENTRAL NEBRASKA

CITY           SKY/WX    TMP DP  RH WIND       PRES   REMARKS
GRAND ISLAND   FAIR      33  27  78 W8        30.34R WCI  26
AURORA         FAIR      33  30  89 NW7       30.34R WCI  27
HASTINGS       FAIR      33  28  81 NW9       30.35R WCI  25
HEBRON         FAIR      33  30  88 NW6       30.36R WCI  28
HOLDREGE       FAIR      32  31  94 NW7       30.34R WCI  26
KEARNEY        FAIR      33  29  85 NW7       30.34R WCI  27
YORK             N/A     30  28  93 NW8       30.35R WCI  23
$$

NEZ011>018-030>034-042>045-141600-
NORTHEAST NEBRASKA

CITY           SKY/WX    TMP DP  RH WIND       PRES   REMARKS
NORFOLK        FAIR      26  22  84 NW6       30.32R WCI  19
ALBION         FAIR      28  25  91 CALM      30.32R
BLAIR          FAIR      27  20  73 NW13      30.32R WCI  16
COLUMBUS       FAIR      30  26  85 W6        30.35R WCI  24
FREMONT        FAIR      28  23  80 W8        30.35R WCI  20
TEKAMAH        FAIR      26  19  74 NW10      30.35R WCI  16
WAYNE          FAIR      24  18  77 NW5       30.32R WCI  19
$$

NEZ050>053-065>068-078-088>093-141600-
SOUTHEAST NEBRASKA

CITY           SKY/WX    TMP DP  RH WIND       PRES   REMARKS
LINCOLN        FAIR      31  24  75 NW5       30.38R WCI  26
OMAHA EPPLEY   FAIR      28  19  69 NW14      30.34R WCI  17
BEATRICE       FAIR      31  29  90 NW6       30.35R WCI  26
FALLS CITY     FAIR      31  26  82 NW9       30.34R WCI  23
NEBRASKA CITY  FAIR      31  24  76 NW9       30.34R WCI  23
PLATTSMOUTH    FAIR      29  23  80 NW10      30.33S WCI  19
$$

NEZ044-045-051>053-067-141600-
OMAHA AREA

CITY           SKY/WX    TMP DP  RH WIND       PRES   REMARKS
OMAHA EPPLEY   FAIR      28  19  69 NW14      30.34R WCI  17
BLAIR          FAIR      27  20  73 NW13      30.32R WCI  16
FREMONT        FAIR      28  23  80 W8        30.35R WCI  20
MILLARD        FAIR      31  19  62 NW8       30.35R WCI  23
OFFUTT AFB     SUNNY     30  16  55 NW9       30.35R WCI  22
PLATTSMOUTH    FAIR      29  23  80 NW10      30.33S WCI  19
WAHOO          FAIR      30  23  76 NW7       30.36R WCI  23
$$



USA.gov is the U.S. government's official web portal to all federal, state and local government web resources and services.